Starlink 11103

operational
NORAD ID: 59718 Int'l Des: 2024-088 Owner: SPXS Country: US Constellation: starlink
LEOCIRCULAR

关于 Starlink 11103

正在加载描述...

实时位置

正在加载3D地球...

即将过境

高度历史

Altitude vs Time

uPlot chart will show altitude changes over time

两行轨道根数

1 59718U 24088L 25258.78135828 .00001756 00000-0 19334-4 0 9999
2 59718 53.1601 108.3055 0000915 100.9841 259.1280 15.69721917 78806
Epoch: Sep 15, 2025 • Age: 15 hours

当前状态

高度 360.6 km
速度 7.69 km/s
星下点 -0.78°S, 151.25°E
发射日期 May 10, 2024
运行时间 1.3 years
类型 internet

技术详情

分类 Payload
质量 960.00 kg
干质量 910.00 kg
总质量 960.00 kg
长度 0.30 m
直径 4.10 m
跨度 29.00 m
形状 Box + pan
制造商 SPXS
平台类型 Starlink V2MD
阶段状态 In Orbit
所有者/国家 SPXS/US

大型星座

Loading constellations...